Location: Potawatomi Wildlife Park
(41.2308°N, 86.1050°W)
Time: 06:47:09
(UTC-05:00)

Daily predictions for brighter satellites

Satellite Brightness Start Highest point End
(mag) Time Altitude Azimuth Time Altitude Azimuth Time Altitude Azimuth
Thor Agena Rocket 4.3 18:55:50 10° N 19:00:47 57° WNW 19:05:42 10° SSW
SKYMED 2 3.7 18:57:35 10° N 19:01:56 81° WNW 19:06:16 10° SSW
BREEZE-M DEB (TANK) 3.8 18:58:11 10° SSW 19:02:48 30° SSE 19:05:12 10° E
Cosmos 1850 Rocket 4.3 19:00:35 10° S 19:05:39 49° ESE 19:10:48 10° NNE
CZ-3C R/B 4.1 19:00:03 10° SW 19:05:48 14° SSW 19:09:04 10° S
Cosmos 2208 Rocket 4.4 19:01:12 10° N 19:06:26 45° ENE 19:11:33 10° SE
Meteor 1-19 Rocket 4.3 19:01:42 10° N 19:07:22 62° ENE 19:13:06 10° SSE
SJ-6B 3.2 19:05:44 10° SE 19:09:30 43° ENE 19:13:12 10° N
Cosmos 1954 Rocket 4.3 19:05:13 10° SSW 19:10:23 72° WNW 19:15:39 10° NNE
Cosmos 2237 Rocket 3.7 19:06:59 10° N 19:10:51 18° NE 19:14:36 10° E
ALOS 2.8 19:08:56 10° SE 19:13:12 36° ENE 19:17:29 10° N
Cosmos 2297 Rocket 3.9 19:13:10 10° ESE 19:14:00 10° E 19:14:24 10° E
Cosmos 1536 Rocket 4.1 19:09:54 10° NNW 19:14:21 65° W 19:18:47 10° S
HJ-1C 4.3 19:11:28 10° SE 19:14:22 27° ENE 19:17:17 10° NNE
Cosmos 2237 4.2 19:09:40 10° NNW 19:15:23 65° ENE 19:21:02 10° SE
COSMOS 2428 2.9 19:09:57 10° NNW 19:15:30 51° ENE 19:21:01 10° SE
H-2A R/B 4.0 19:13:28 10° ESE 19:16:19 21° ENE 19:19:12 10° NNE
Okean 1-7 Rocket 3.9 19:14:23 10° N 19:18:44 46° ENE 19:23:02 10° SSE
Meteor 2-4 Rocket 3.7 19:15:58 10° N 19:21:24 57° ENE 19:26:41 10° SSE
Gbstr 26 Del rocket 3.1 19:17:58 10° WSW 19:21:48 58° NNW 19:25:29 10° NE
Cosmos 2285 Rocket 4.4 19:16:17 10° N 19:22:23 43° ENE 19:28:25 10° SE
Cosmos 2219 Rocket 2.9 19:18:29 10° N 19:23:34 34° ENE 19:28:37 10° ESE
Cosmos 2360 Rocket 2.7 19:18:15 10° NNW 19:23:51 65° WSW 19:29:26 10° S
Meteor 1-23 Rocket 4.4 19:21:28 10° N 19:27:09 53° ENE 19:32:43 10° SSE
Meteor 1-13 Rocket 4.4 19:22:37 10° NNW 19:28:12 77° W 19:33:51 10° S
Okean 2 4.3 19:24:38 10° NNE 19:28:18 29° ENE 19:31:56 10° SE
Cosmos 2219 3.2 19:26:06 10° SSW 19:31:49 72° ESE 19:37:33 10° NNE
Atlas Centaur 2 4.4 19:29:23 10° S 19:32:19 13° SSE 19:35:04 10° SE
FREGAT/IRIS 2.6 19:30:07 10° S 19:33:12 86° W 19:36:18 10° NNW
Cosmos 2227 Rocket 3.3 19:29:48 10° SSE 19:34:02 22° E 19:38:19 10° NE
Abrixas rocket 2.2 19:31:31 10° WSW 19:34:53 83° NNW 19:37:11 19° ENE
Helios 1A 4.1 19:33:28 17° ESE 19:35:18 23° ENE 19:38:35 10° NNE
Helios 1B rocket 3.7 19:32:26 10° NE 19:35:32 20° E 19:38:37 10° SE
Cosmos 1300 Rocket 4.3 19:33:58 10° SSW 19:38:19 58° W 19:42:43 10° N
Cosmos 1536 2.8 19:35:33 10° S 19:39:31 90° W 19:43:32 10° N
SAR-Lupe-4 4.3 19:44:54 26° ESE 19:45:55 31° ENE 19:49:06 10° N
Cosmos 1455 Rocket 4.0 19:42:56 10° SE 19:46:30 25° E 19:50:04 10° NE
SL-16 R/B 3.8 19:43:12 10° N 19:46:33 16° NE 19:47:23 15° ENE
Cosmos 1437 4.5 19:51:20 10° NNE 19:52:45 19° NE 19:52:45 19° NE
Cosmos 1763 Rocket 4.4 19:52:25 10° N 19:56:46 27° ENE 19:57:29 26° ENE
Resurs 01 Rocket 1.5 19:55:26 10° SSE 19:59:50 83° ENE 20:04:15 10° NNW
Cosmos 1610 Rocket 4.4 19:59:41 10° S 20:05:50 68° E 20:11:57 10° NNE
ATLAS 2A CENTAUR R/B 4.4 20:07:08 10° S 20:07:50 10° SSE 20:08:38 10° SSE
Cosmos 2333 Rocket 2.2 20:03:58 10° NNW 20:09:42 63° ENE 20:12:59 26° SE
Resurs 1-3 3.5 20:05:51 10° SSE 20:10:14 90° E 20:14:40 10° NNW
Cosmos 1980 3.8 20:05:10 10° NNW 20:10:41 51° ENE 20:12:50 34° ESE
FENGYUN 3A 4.1 20:06:01 10° S 20:11:22 65° WSW 20:16:47 10° NNW
GEOS 3 Rocket 3.5 20:08:20 16° NE 20:12:37 69° SE 20:17:52 10° SSW
GPS 2-04 Rocket1 3.6 20:09:23 10° WSW 20:13:23 39° S 20:14:12 35° SSE
Cosmos 1892 Rocket 3.4 20:18:55 10° N 20:23:17 88° WSW 20:26:07 22° S
OTV 4 2.6 20:21:17 10° SW 20:22:38 21° SSW 20:22:38 21° SSW
Cosmos 1025 Rocket 4.3 20:21:23 10° NNW 20:25:31 41° W 20:29:38 10° SSW
Cosmos 468 Rocket 3.9 20:20:36 10° NNW 20:25:52 89° WSW 20:28:51 27° SSE
USA 186 4.5 20:31:51 11° NNW 20:31:51 11° NNW 20:31:58 10° NNW
USA 229 DEB 4.1 20:22:05 10° NW 20:29:09 65° WSW 20:35:24 14° SSE
USA 229 4.1 20:22:11 10° NW 20:29:15 66° WSW 20:35:26 15° SSE
Spot 2 Rocket 4.2 20:25:03 10° S 20:29:58 54° W 20:34:58 10° NNW
Cosmos 1515 4.5 20:30:25 10° N 20:33:04 42° N 20:33:04 42° N
Cosmos 2082 3.6 20:30:22 10° S 20:36:00 66° ESE 20:37:59 40° NE
Hubble Space Telescope 3.2 20:37:49 10° SSW 20:38:56 13° SSW 20:38:56 13° SSW
Spot 1 4.3 20:39:07 46° SSW 20:40:05 63° WSW 20:44:15 10° NNW
NOSS 3-1 (A) 4.1 20:34:26 10° NNW 20:41:56 61° NE 20:44:07 47° ESE
ERS-1 Rocket 4.3 20:45:10 26° NNE 20:45:10 26° NNE 20:47:40 10° N
Cosmos 332 Rocket 4.3 20:40:25 10° NNW 20:44:09 47° NNE 20:44:09 47° NNE
Envisat 3.0 20:47:02 63° NNE 20:47:02 63° NNE 20:51:30 10° N
Cosmos 1544 Rocket 4.2 20:42:21 10° SSW 20:46:35 54° W 20:50:51 10° N
Cosmos 405 Rocket 4.1 20:42:56 10° NNW 20:46:46 40° W 20:48:31 25° SW
Cosmos 1814 Rocket 4.0 20:41:47 10° NNW 20:46:57 77° WSW 20:47:53 59° S
ATLAS 2AS CENTAUR R/B 4.1 20:40:24 10° NNW 20:47:05 27° NNE 20:48:06 26° NE
USA 32 4.0 20:49:19 10° N 20:54:06 75° N 20:54:06 75° N
Nadezhda 3 Rocket 4.1 20:48:35 10° NNW 20:54:44 71° W 20:59:43 16° S
Cosmos 371 Rocket 4.4 20:50:13 10° NNW 20:53:07 34° N 20:53:07 34° N
Cosmos 2237 Rocket 2.2 20:49:51 10° NNW 20:55:34 76° WSW 20:56:29 62° S
NOSS 0 Rocket 4.4 20:50:20 10° NNW 20:56:20 57° WSW 20:59:13 31° S
Cosmos 2297 Rocket 2.2 20:51:26 10° SSW 20:56:25 70° S 20:56:25 70° S
NOSS 3-1 (C) 4.0 20:52:11 10° NW 20:59:51 89° SW 21:02:16 52° SSE
Cosmos 1066 Rocket 4.1 20:54:29 10° N 21:00:03 86° NW 21:00:03 86° NW
Cosmos 2341 Rocket 4.1 20:58:43 10° SSW 21:05:04 76° W 21:11:30 10° N
Cosmos 2219 Rocket 3.6 21:02:26 10° NW 21:07:28 35° WSW 21:10:46 19° SSW
H-2A R/B 4.4 21:03:33 10° SSW 21:42:29 10° E 21:42:40 10° E
Helios 1B rocket 4.1 21:07:10 10° N 21:10:54 33° WNW 21:14:36 10° SW
Cosmos 2227 Rocket 2.9 21:12:11 10° SW 21:17:40 51° WNW 21:20:36 27° N
Atlas Centaur 2 4.3 21:15:41 10° SW 21:18:27 19° SSW 21:18:27 19° SSW
SL-16 R/B 3.2 21:25:45 10° NNW 21:29:17 40° NNW 21:29:17 40° NNW
Cosmos 2333 Rocket 4.5 21:49:33 10° WNW 21:53:22 18° W 21:55:05 16° WSW
ATLAS 2AS CENTAUR R/B 4.2 22:31:11 10° NW 22:35:33 36° NNW 22:35:33 36° NNW
